,,PressureMeas_1m,,PRMeasQMR101_1,,RHStat155_1m_1,,SRMeasQMS101R_1m,,TAStat155_1m_1,,GenWind_1,,GenWind_1,
2018-08-14, 07:00:06,VALID,918.035,VALID,0.0,VALID,97.75,VALID,66.496,VALID,18.53,VALID,131.0,VALID,0.0,
2018-08-14, 07:01:06,VALID,918.053,VALID,0.0,VALID,97.7,VALID,67.063,VALID,18.553,VALID,145.0,VALID,0.0,
2018-08-14, 07:02:06,VALID,918.067,VALID,0.0,VALID,97.621,VALID,68.427,VALID,18.563,VALID,130.0,VALID,0.0,
2018-08-14, 07:03:06,VALID,918.086,VALID,0.0,VALID,97.507,VALID,68.682,VALID,18.56,VALID,130.0,VALID,0.0,
2018-08-14, 07:04:06,VALID,918.093,VALID,0.0,VALID,97.434,VALID,68.35,VALID,18.552,VALID,140.0,VALID,0.0,
2018-08-14, 07:05:06,VALID,918.096,VALID,0.0,VALID,97.319,VALID,68.548,VALID,18.525,VALID,134.0,VALID,0.0,
2018-08-14, 07:06:06,VALID,918.109,VALID,0.0,VALID,97.407,VALID,68.563,VALID,18.529,VALID,135.0,VALID,0.0,
2018-08-14, 07:07:06,VALID,918.123,VALID,0.0,VALID,97.518,VALID,68.311,VALID,18.551,VALID,132.0,VALID,0.0,
2018-08-14, 07:08:06,VALID,918.142,VALID,0.0,VALID,97.533,VALID,67.938,VALID,18.555,VALID,134.0,VALID,0.0,
2018-08-14, 07:09:06,VALID,918.166,VALID,0.0,VALID,97.537,VALID,68.829,VALID,18.565,VALID,128.0,VALID,0.0,
2018-08-14, 07:10:06,VALID,918.177,VALID,0.0,VALID,97.579,VALID,71.821,VALID,18.584,VALID,116.0,VALID,0.0,
2018-08-14, 07:11:06,VALID,918.169,VALID,0.0,VALID,97.667,VALID,77.981,VALID,18.619,VALID,105.0,VALID,0.0,
2018-08-14, 07:12:06,VALID,918.167,VALID,0.0,VALID,97.724,VALID,87.34,VALID,18.681,VALID,97.0,VALID,0.0,
2018-08-14, 07:13:06,VALID,918.18,VALID,0.0,VALID,97.642,VALID,97.861,VALID,18.713,VALID,94.0,VALID,0.0,
2018-08-14, 07:14:06,VALID,918.177,VALID,0.0,VALID,97.402,VALID,104.928,VALID,18.731,VALID,84.0,VALID,0.0,
2018-08-14, 07:15:06,VALID,918.218,VALID,0.0,VALID,97.178,VALID,111.205,VALID,18.768,VALID,90.0,VALID,0.0,
2018-08-14, 07:16:06,VALID,918.233,VALID,0.0,VALID,97.115,VALID,121.024,VALID,18.838,VALID,99.0,VALID,0.0,
2018-08-14, 07:17:06,VALID,918.263,VALID,0.0,VALID,97.043,VALID,149.495,VALID,18.923,VALID,106.0,VALID,0.0,
2018-08-14, 07:18:06,VALID,918.283,VALID,0.0,VALID,97.092,VALID,174.016,VALID,19.019,VALID,109.0,VALID,0.0,
2018-08-14, 07:19:06,VALID,918.298,VALID,0.0,VALID,96.882,VALID,188.981,VALID,19.076,VALID,111.0,VALID,0.0,
2018-08-14, 07:20:06,VALID,918.32,VALID,0.0,VALID,96.97,VALID,191.34,VALID,19.196,VALID,102.0,VALID,0.0,
2018-08-14, 07:21:06,VALID,918.331,VALID,0.0,VALID,96.602,VALID,199.362,VALID,19.288,VALID,104.0,VALID,0.0,
2018-08-14, 07:22:06,VALID,918.355,VALID,0.0,VALID,96.415,VALID,210.791,VALID,19.4,VALID,111.0,VALID,0.0,
2018-08-14, 07:23:06,VALID,918.391,VALID,0.0,VALID,95.479,VALID,219.263,VALID,19.372,VALID,121.0,VALID,0.0,
2018-08-14, 07:24:06,VALID,918.43,VALID,0.0,VALID,95.015,VALID,222.406,VALID,19.296,VALID,122.0,VALID,0.0,
2018-08-14, 07:25:06,VALID,918.45,VALID,0.0,VALID,94.995,VALID,224.922,VALID,19.212,VALID,120.0,VALID,0.0,
2018-08-14, 07:26:06,VALID,918.468,VALID,0.0,VALID,95.209,VALID,227.129,VALID,19.146,VALID,119.0,VALID,0.0,
2018-08-14, 07:27:06,VALID,918.456,VALID,0.0,VALID,95.489,VALID,229.832,VALID,19.122,VALID,114.0,VALID,0.0,
2018-08-14, 07:28:06,VALID,918.462,VALID,0.0,VALID,96.021,VALID,232.494,VALID,19.175,VALID,109.0,VALID,0.0,
2018-08-14, 07:29:06,VALID,918.464,VALID,0.0,VALID,96.343,VALID,235.948,VALID,19.294,VALID,111.0,VALID,0.0,
2018-08-14, 07:30:06,VALID,918.495,VALID,0.0,VALID,96.143,VALID,238.764,VALID,19.399,VALID,110.0,VALID,0.0,
2018-08-14, 07:31:06,VALID,918.529,VALID,0.0,VALID,95.546,VALID,239.514,VALID,19.474,VALID,116.0,VALID,0.0,
2018-08-14, 07:32:06,VALID,918.553,VALID,0.0,VALID,95.318,VALID,242.035,VALID,19.547,VALID,119.0,VALID,0.0,
2018-08-14, 07:33:06,VALID,918.564,VALID,0.0,VALID,95.368,VALID,243.414,VALID,19.636,VALID,108.0,VALID,0.0,
2018-08-14, 07:34:06,VALID,918.583,VALID,0.0,VALID,95.432,VALID,244.836,VALID,19.808,VALID,100.0,VALID,0.0,
2018-08-14, 07:35:06,VALID,918.599,VALID,0.0,VALID,94.655,VALID,252.203,VALID,20.003,VALID,101.0,VALID,0.0,
2018-08-14, 07:36:06,VALID,918.614,VALID,0.0,VALID,93.061,VALID,255.801,VALID,20.12,VALID,104.0,VALID,0.0,
2018-08-14, 07:37:06,VALID,918.646,VALID,0.0,VALID,92.648,VALID,256.591,VALID,20.19,VALID,115.0,VALID,0.0,
2018-08-14, 07:38:06,VALID,918.678,VALID,0.0,VALID,91.948,VALID,254.782,VALID,20.136,VALID,125.0,VALID,0.0,
2018-08-14, 07:39:06,VALID,918.697,VALID,0.0,VALID,92.066,VALID,249.612,VALID,20.092,VALID,133.0,VALID,0.0,
2018-08-14, 07:40:06,VALID,918.722,VALID,0.0,VALID,91.836,VALID,257.105,VALID,20.103,VALID,135.0,VALID,0.0,
2018-08-14, 07:41:06,VALID,918.733,VALID,0.0,VALID,91.116,VALID,263.114,VALID,20.064,VALID,126.0,VALID,0.0,
2018-08-14, 07:42:06,VALID,918.759,VALID,0.0,VALID,91.549,VALID,266.066,VALID,19.985,VALID,122.0,VALID,0.0,
2018-08-14, 07:43:06,VALID,918.754,VALID,0.0,VALID,91.89,VALID,268.559,VALID,19.936,VALID,118.0,VALID,0.0,
2018-08-14, 07:44:06,VALID,918.771,VALID,0.0,VALID,92.098,VALID,272.676,VALID,19.906,VALID,120.0,VALID,0.0,
2018-08-14, 07:45:06,VALID,918.768,VALID,0.0,VALID,92.457,VALID,277.825,VALID,19.945,VALID,108.0,VALID,0.0,
2018-08-14, 07:46:06,VALID,918.788,VALID,0.0,VALID,92.141,VALID,282.887,VALID,20.104,VALID,120.0,VALID,0.0,
2018-08-14, 07:47:06,VALID,918.803,VALID,0.0,VALID,91.884,VALID,286.795,VALID,20.216,VALID,118.0,VALID,0.0,
2018-08-14, 07:48:06,VALID,918.808,VALID,0.0,VALID,91.388,VALID,291.822,VALID,20.285,VALID,120.0,VALID,0.0,
2018-08-14, 07:49:06,VALID,918.799,VALID,0.0,VALID,90.672,VALID,296.013,VALID,20.324,VALID,117.0,VALID,0.0,
2018-08-14, 07:50:06,VALID,918.804,VALID,0.0,VALID,91.087,VALID,300.408,VALID,20.419,VALID,97.0,VALID,0.0,
2018-08-14, 07:51:06,VALID,918.815,VALID,0.0,VALID,90.679,VALID,304.721,VALID,20.583,VALID,114.0,VALID,0.0,
2018-08-14, 07:52:06,VALID,918.857,VALID,0.0,VALID,89.898,VALID,308.723,VALID,20.73,VALID,131.0,VALID,0.0,
2018-08-14, 07:53:06,VALID,918.888,VALID,0.0,VALID,89.569,VALID,313.48,VALID,20.868,VALID,133.0,VALID,0.0,
2018-08-14, 07:54:06,VALID,918.918,VALID,0.0,VALID,88.77,VALID,318.667,VALID,20.946,VALID,124.0,VALID,0.0,
2018-08-14, 07:55:06,VALID,918.926,VALID,0.0,VALID,87.981,VALID,322.711,VALID,20.949,VALID,120.0,VALID,0.0,
2018-08-14, 07:56:06,VALID,918.957,VALID,0.0,VALID,87.852,VALID,327.021,VALID,20.95,VALID,119.0,VALID,0.0,
2018-08-14, 07:57:06,VALID,918.981,VALID,0.0,VALID,87.489,VALID,330.701,VALID,20.924,VALID,116.0,VALID,0.0,
2018-08-14, 07:58:06,VALID,919.016,VALID,0.0,VALID,88.022,VALID,334.403,VALID,20.884,VALID,115.0,VALID,0.0,
2018-08-14, 07:59:06,VALID,919.033,VALID,0.0,VALID,88.536,VALID,338.095,VALID,20.902,VALID,109.0,VALID,0.0,
2018-08-14, 08:00:06,VALID,919.053,VALID,0.0,VALID,88.531,VALID,342.017,VALID,21.054,VALID,111.0,VALID,0.0,
2018-08-14, 08:01:06,VALID,919.085,VALID,0.0,VALID,87.781,VALID,345.374,VALID,21.183,VALID,118.0,VALID,0.0,
2018-08-14, 08:02:06,VALID,919.093,VALID,0.0,VALID,87.179,VALID,349.14,VALID,21.273,VALID,118.0,VALID,0.0,
2018-08-14, 08:03:06,VALID,919.105,VALID,0.0,VALID,86.187,VALID,352.779,VALID,21.345,VALID,128.0,VALID,0.0,
2018-08-14, 08:04:06,VALID,919.106,VALID,0.0,VALID,85.997,VALID,356.135,VALID,21.354,VALID,128.0,VALID,0.0,
2018-08-14, 08:05:06,VALID,919.123,VALID,0.0,VALID,86.118,VALID,361.001,VALID,21.409,VALID,132.0,VALID,0.0,
2018-08-14, 08:06:06,VALID,919.141,VALID,0.0,VALID,85.52,VALID,365.705,VALID,21.512,VALID,129.0,VALID,0.0,
2018-08-14, 08:07:06,VALID,919.135,VALID,0.0,VALID,85.675,VALID,370.267,VALID,21.563,VALID,132.0,VALID,0.0,
2018-08-14, 08:08:06,VALID,919.136,VALID,0.0,VALID,85.036,VALID,374.773,VALID,21.596,VALID,130.0,VALID,0.0,
2018-08-14, 08:09:06,VALID,919.132,VALID,0.0,VALID,85.203,VALID,379.877,VALID,21.563,VALID,125.0,VALID,0.0,
2018-08-14, 08:10:06,VALID,919.106,VALID,0.0,VALID,86.193,VALID,384.157,VALID,21.528,VALID,117.0,VALID,0.0,
2018-08-14, 08:11:06,VALID,919.111,VALID,0.0,VALID,86.198,VALID,385.099,VALID,21.573,VALID,116.0,VALID,0.0,
2018-08-14, 08:12:06,VALID,919.111,VALID,0.0,VALID,84.972,VALID,395.343,VALID,21.543,VALID,113.0,VALID,0.0,
2018-08-14, 08:13:06,VALID,919.115,VALID,0.0,VALID,85.501,VALID,389.592,VALID,21.652,VALID,116.0,VALID,0.0,
2018-08-14, 08:14:06,VALID,919.106,VALID,0.0,VALID,84.675,VALID,382.213,VALID,21.814,VALID,136.0,VALID,0.0,
2018-08-14, 08:15:06,VALID,919.104,VALID,0.0,VALID,84.171,VALID,389.403,VALID,21.852,VALID,128.0,VALID,0.0,
2018-08-14, 08:16:07,VALID,919.101,VALID,0.0,VALID,84.639,VALID,384.434,VALID,21.786,VALID,127.0,VALID,0.0,
2018-08-14, 08:17:07,VALID,919.102,VALID,0.0,VALID,85.371,VALID,359.691,VALID,21.823,VALID,128.0,VALID,0.0,
2018-08-14, 08:18:07,VALID,919.124,VALID,0.0,VALID,84.692,VALID,349.632,VALID,21.914,VALID,128.0,VALID,0.0,
2018-08-14, 08:19:07,VALID,919.152,VALID,0.0,VALID,83.94,VALID,382.08,VALID,21.992,VALID,127.0,VALID,0.0,
2018-08-14, 08:20:07,VALID,919.157,VALID,0.0,VALID,83.65,VALID,355.928,VALID,22.014,VALID,127.0,VALID,0.0,
2018-08-14, 08:21:07,VALID,919.158,VALID,0.0,VALID,83.678,VALID,382.421,VALID,22.002,VALID,126.0,VALID,0.0,
2018-08-14, 08:22:07,VALID,919.165,VALID,0.0,VALID,83.582,VALID,403.472,VALID,22.026,VALID,132.0,VALID,0.0,
2018-08-14, 08:23:07,VALID,919.163,VALID,0.0,VALID,83.449,VALID,405.433,VALID,22.151,VALID,128.0,VALID,0.0,
2018-08-14, 08:24:07,VALID,919.158,VALID,0.0,VALID,83.033,VALID,416.785,VALID,22.281,VALID,126.0,VALID,0.0,
2018-08-14, 08:25:07,VALID,919.154,VALID,0.0,VALID,82.441,VALID,440.165,VALID,22.471,VALID,105.0,VALID,0.0,
2018-08-14, 08:26:07,VALID,919.141,VALID,0.0,VALID,82.672,VALID,432.35,VALID,22.768,VALID,75.0,VALID,0.0,
2018-08-14, 08:27:07,VALID,919.134,VALID,0.0,VALID,80.883,VALID,455.832,VALID,23.029,VALID,104.0,VALID,0.0,
2018-08-14, 08:28:07,VALID,919.148,VALID,0.0,VALID,79.609,VALID,462.654,VALID,23.12,VALID,85.0,VALID,0.0,
2018-08-14, 08:29:07,VALID,919.152,VALID,0.0,VALID,79.484,VALID,465.754,VALID,23.002,VALID,68.0,VALID,0.0,
2018-08-14, 08:30:07,VALID,919.167,VALID,0.0,VALID,81.641,VALID,468.62,VALID,22.976,VALID,56.0,VALID,0.0,
2018-08-14, 08:31:07,VALID,919.193,VALID,0.0,VALID,80.121,VALID,472.345,VALID,23.181,VALID,87.0,VALID,0.0,
2018-08-14, 08:32:07,VALID,919.188,VALID,0.0,VALID,78.274,VALID,474.46,VALID,23.475,VALID,50.0,VALID,0.0,
2018-08-14, 08:33:07,VALID,919.209,VALID,0.0,VALID,78.0,VALID,469.26,VALID,23.788,VALID,52.0,VALID,0.0,
2018-08-14, 08:34:07,VALID,919.219,VALID,0.0,VALID,76.981,VALID,461.234,VALID,23.984,VALID,64.0,VALID,0.0,
2018-08-14, 08:35:07,VALID,919.225,VALID,0.0,VALID,74.417,VALID,438.096,VALID,23.976,VALID,80.0,VALID,0.0,
2018-08-14, 08:36:07,VALID,919.227,VALID,0.0,VALID,73.56,VALID,474.521,VALID,24.059,VALID,73.0,VALID,0.0,
2018-08-14, 08:37:07,VALID,919.219,VALID,0.0,VALID,73.887,VALID,474.733,VALID,24.154,VALID,66.0,VALID,0.0,
2018-08-14, 08:38:07,VALID,919.207,VALID,0.0,VALID,74.093,VALID,478.099,VALID,24.146,VALID,40.0,VALID,0.0,
2018-08-14, 08:39:07,VALID,919.201,VALID,0.0,VALID,75.402,VALID,483.505,VALID,24.237,VALID,110.0,VALID,0.0,
2018-08-14, 08:40:07,VALID,919.201,VALID,0.0,VALID,76.328,VALID,490.246,VALID,24.126,VALID,118.0,VALID,0.0,
2018-08-14, 08:41:07,VALID,919.197,VALID,0.0,VALID,76.56,VALID,493.511,VALID,24.038,VALID,142.0,VALID,0.0,
2018-08-14, 08:42:07,VALID,919.208,VALID,0.0,VALID,76.5,VALID,497.701,VALID,23.969,VALID,171.0,VALID,0.0,
2018-08-14, 08:43:07,VALID,919.209,VALID,0.0,VALID,76.874,VALID,501.715,VALID,23.937,VALID,110.0,VALID,0.0,
2018-08-14, 08:44:07,VALID,919.205,VALID,0.0,VALID,75.803,VALID,505.483,VALID,24.077,VALID,117.0,VALID,0.0,
2018-08-14, 08:45:07,VALID,919.2,VALID,0.0,VALID,74.777,VALID,508.461,VALID,24.028,VALID,245.0,VALID,0.0,
2018-08-14, 08:46:07,VALID,919.195,VALID,0.0,VALID,74.92,VALID,511.975,VALID,24.053,VALID,79.0,VALID,0.0,
2018-08-14, 08:47:07,VALID,919.176,VALID,0.0,VALID,74.466,VALID,514.676,VALID,24.355,VALID,42.0,VALID,0.0,
2018-08-14, 08:48:07,VALID,919.157,VALID,0.0,VALID,73.684,VALID,517.869,VALID,24.587,VALID,23.0,VALID,0.0,
2018-08-14, 08:49:07,VALID,919.139,VALID,0.0,VALID,73.806,VALID,521.191,VALID,24.536,VALID,352.0,VALID,0.0,
2018-08-14, 08:50:07,VALID,919.131,VALID,0.0,VALID,73.923,VALID,523.408,VALID,24.332,VALID,351.0,VALID,0.0,
2018-08-14, 08:51:07,VALID,919.122,VALID,0.0,VALID,72.664,VALID,526.124,VALID,24.15,VALID,349.0,VALID,0.0,
2018-08-14, 08:52:07,VALID,919.122,VALID,0.0,VALID,73.627,VALID,529.7,VALID,24.141,VALID,15.0,VALID,0.0,
2018-08-14, 08:53:07,VALID,919.105,VALID,0.0,VALID,73.674,VALID,533.057,VALID,24.124,VALID,354.0,VALID,0.0,
2018-08-14, 08:54:07,VALID,919.112,VALID,0.0,VALID,71.57,VALID,536.161,VALID,24.077,VALID,323.0,VALID,0.0,
2018-08-14, 08:55:07,VALID,919.119,VALID,0.0,VALID,70.337,VALID,539.085,VALID,24.177,VALID,352.0,VALID,0.0,
2018-08-14, 08:56:07,VALID,919.138,VALID,0.0,VALID,72.952,VALID,541.953,VALID,24.122,VALID,359.0,VALID,0.0,
2018-08-14, 08:57:07,VALID,919.139,VALID,0.0,VALID,71.059,VALID,545.845,VALID,24.129,VALID,344.0,VALID,0.0,
2018-08-14, 08:58:07,VALID,919.128,VALID,0.0,VALID,70.735,VALID,548.4,VALID,24.274,VALID,338.0,VALID,0.0,
2018-08-14, 08:59:07,VALID,919.112,VALID,0.0,VALID,70.289,VALID,551.339,VALID,24.52,VALID,12.0,VALID,0.0,
2018-08-14, 09:00:07,VALID,919.117,VALID,0.0,VALID,68.714,VALID,555.658,VALID,24.785,VALID,353.0,VALID,0.0,
2018-08-14, 09:01:07,VALID,919.112,VALID,0.0,VALID,70.136,VALID,559.115,VALID,24.937,VALID,2.0,VALID,0.0,
2018-08-14, 09:02:07,VALID,919.11,VALID,0.0,VALID,68.625,VALID,562.486,VALID,25.095,VALID,24.0,VALID,0.0,
2018-08-14, 09:03:07,VALID,919.082,VALID,0.0,VALID,65.805,VALID,565.447,VALID,24.977,VALID,358.0,VALID,0.0,
2018-08-14, 09:04:07,VALID,919.08,VALID,0.0,VALID,66.335,VALID,568.878,VALID,24.603,VALID,325.0,VALID,0.0,
2018-08-14, 09:05:07,VALID,919.054,VALID,0.0,VALID,67.638,VALID,572.228,VALID,24.628,VALID,360.0,VALID,0.0,
2018-08-14, 09:06:07,VALID,919.036,VALID,0.0,VALID,67.909,VALID,575.377,VALID,24.633,VALID,11.0,VALID,0.0,
2018-08-14, 09:07:07,VALID,919.006,VALID,0.0,VALID,68.198,VALID,578.831,VALID,24.444,VALID,349.0,VALID,0.0,
2018-08-14, 09:08:07,VALID,918.993,VALID,0.0,VALID,68.829,VALID,582.115,VALID,24.548,VALID,16.0,VALID,0.0,
2018-08-14, 09:09:07,VALID,918.997,VALID,0.0,VALID,66.216,VALID,584.9,VALID,24.594,VALID,338.0,VALID,0.0,
2018-08-14, 09:10:07,VALID,919.002,VALID,0.0,VALID,67.932,VALID,588.529,VALID,24.519,VALID,25.0,VALID,0.0,
2018-08-14, 09:11:07,VALID,918.995,VALID,0.0,VALID,70.324,VALID,591.396,VALID,24.484,VALID,11.0,VALID,0.0,
2018-08-14, 09:12:07,VALID,919.004,VALID,0.0,VALID,68.733,VALID,593.736,VALID,24.778,VALID,274.0,VALID,0.0,
2018-08-14, 09:13:07,VALID,919.004,VALID,0.0,VALID,65.636,VALID,597.437,VALID,24.651,VALID,234.0,VALID,0.0,
2018-08-14, 09:14:07,VALID,919.004,VALID,0.0,VALID,67.005,VALID,600.457,VALID,24.484,VALID,339.0,VALID,0.0,
2018-08-14, 09:15:07,VALID,918.997,VALID,0.0,VALID,67.931,VALID,604.133,VALID,24.541,VALID,13.0,VALID,0.0,
2018-08-14, 09:16:07,VALID,919.001,VALID,0.0,VALID,69.635,VALID,607.718,VALID,24.57,VALID,5.0,VALID,0.0,
2018-08-14, 09:17:07,VALID,919.005,VALID,0.0,VALID,69.222,VALID,611.001,VALID,24.73,VALID,344.0,VALID,0.0,
2018-08-14, 09:18:07,VALID,919.006,VALID,0.0,VALID,67.547,VALID,614.472,VALID,24.973,VALID,344.0,VALID,0.0,
2018-08-14, 09:19:07,VALID,919.018,VALID,0.0,VALID,66.924,VALID,617.329,VALID,25.003,VALID,4.0,VALID,0.0,
2018-08-14, 09:20:07,VALID,919.007,VALID,0.0,VALID,68.098,VALID,620.459,VALID,24.951,VALID,350.0,VALID,0.0,
2018-08-14, 09:21:07,VALID,918.987,VALID,0.0,VALID,69.013,VALID,623.491,VALID,25.117,VALID,357.0,VALID,0.0,
2018-08-14, 09:22:07,VALID,918.993,VALID,0.0,VALID,66.794,VALID,626.43,VALID,24.962,VALID,339.0,VALID,0.0,
2018-08-14, 09:23:07,VALID,918.998,VALID,0.0,VALID,68.094,VALID,629.973,VALID,24.84,VALID,300.0,VALID,0.0,
2018-08-14, 09:24:07,VALID,919.008,VALID,0.0,VALID,67.448,VALID,632.41,VALID,24.675,VALID,277.0,VALID,0.0,
2018-08-14, 09:25:07,VALID,919.022,VALID,0.0,VALID,68.985,VALID,635.41,VALID,24.518,VALID,279.0,VALID,0.0,
2018-08-14, 09:26:07,VALID,919.008,VALID,0.0,VALID,68.78,VALID,639.109,VALID,24.825,VALID,282.0,VALID,0.0,
2018-08-14, 09:27:07,VALID,919.014,VALID,0.0,VALID,67.35,VALID,642.344,VALID,25.067,VALID,259.0,VALID,0.0,
2018-08-14, 09:28:07,VALID,919.021,VALID,0.0,VALID,66.927,VALID,644.929,VALID,25.058,VALID,259.0,VALID,0.0,
2018-08-14, 09:29:07,VALID,919.022,VALID,0.0,VALID,64.993,VALID,648.657,VALID,24.932,VALID,224.0,VALID,0.0,
2018-08-14, 09:30:07,VALID,919.028,VALID,0.0,VALID,65.688,VALID,651.54,VALID,24.998,INVALID,360.0,VALID,0.0,
2018-08-14, 09:31:07,VALID,919.027,VALID,0.0,VALID,67.377,VALID,654.302,VALID,25.336,VALID,304.0,VALID,0.0,
2018-08-14, 09:32:07,VALID,919.031,VALID,0.0,VALID,64.985,VALID,656.816,VALID,25.677,VALID,290.0,VALID,0.0,
2018-08-14, 09:33:07,VALID,919.014,VALID,0.0,VALID,64.48,VALID,659.918,VALID,25.902,VALID,312.0,VALID,0.0,
2018-08-14, 09:34:07,VALID,919.005,VALID,0.0,VALID,64.231,VALID,662.404,VALID,25.993,VALID,274.0,VALID,0.0,
2018-08-14, 09:35:07,VALID,918.99,VALID,0.0,VALID,63.769,VALID,665.604,VALID,25.767,VALID,279.0,VALID,0.0,
2018-08-14, 09:36:07,VALID,918.974,VALID,0.0,VALID,64.399,VALID,668.384,VALID,25.842,VALID,293.0,VALID,0.0,
2018-08-14, 09:37:07,VALID,918.961,VALID,0.0,VALID,62.746,VALID,671.577,VALID,25.617,VALID,234.0,VALID,0.0,
2018-08-14, 09:38:07,VALID,918.957,VALID,0.0,VALID,63.37,VALID,673.649,VALID,25.655,VALID,191.0,VALID,0.0,
2018-08-14, 09:39:07,VALID,918.932,VALID,0.0,VALID,64.077,VALID,677.06,VALID,25.67,VALID,235.0,VALID,0.0,
2018-08-14, 09:40:07,VALID,918.918,VALID,0.0,VALID,62.933,VALID,679.714,VALID,25.368,VALID,229.0,VALID,0.0,
2018-08-14, 09:41:07,VALID,918.917,VALID,0.0,VALID,64.859,VALID,682.71,VALID,25.115,VALID,246.0,VALID,0.0,
2018-08-14, 09:42:07,VALID,918.914,VALID,0.0,VALID,65.148,VALID,685.914,VALID,25.079,VALID,232.0,VALID,0.0,
2018-08-14, 09:43:07,VALID,918.913,VALID,0.0,VALID,65.786,VALID,688.804,VALID,25.056,VALID,256.0,VALID,0.0,
2018-08-14, 09:44:07,VALID,918.921,VALID,0.0,VALID,65.306,VALID,691.635,VALID,25.101,VALID,283.0,VALID,0.0,
2018-08-14, 09:45:07,VALID,918.908,VALID,0.0,VALID,65.55,VALID,694.604,VALID,25.433,VALID,357.0,VALID,0.0,
2018-08-14, 09:46:07,VALID,918.906,VALID,0.0,VALID,65.345,VALID,697.811,VALID,25.771,VALID,352.0,VALID,0.0,
2018-08-14, 09:47:07,VALID,918.887,VALID,0.0,VALID,63.25,VALID,700.899,VALID,26.106,VALID,194.0,VALID,0.0,
2018-08-14, 09:48:07,VALID,918.872,VALID,0.0,VALID,62.223,VALID,704.287,VALID,25.923,VALID,222.0,VALID,0.0,
2018-08-14, 09:49:07,VALID,918.88,VALID,0.0,VALID,62.896,VALID,706.949,VALID,25.639,VALID,243.0,VALID,0.0,
2018-08-14, 09:50:07,VALID,918.891,VALID,0.0,VALID,62.41,VALID,709.108,VALID,25.355,VALID,227.0,VALID,0.0,
2018-08-14, 09:51:07,VALID,918.898,VALID,0.0,VALID,63.642,VALID,711.897,VALID,25.111,VALID,231.0,VALID,0.0,
2018-08-14, 09:52:07,VALID,918.911,VALID,0.0,VALID,64.8,VALID,714.068,VALID,25.039,VALID,231.0,VALID,0.0,
2018-08-14, 09:53:07,VALID,918.928,VALID,0.0,VALID,64.882,VALID,716.702,VALID,24.917,VALID,231.0,VALID,0.0,
2018-08-14, 09:54:07,VALID,918.925,VALID,0.0,VALID,66.055,VALID,718.888,VALID,24.904,VALID,233.0,VALID,0.0,
2018-08-14, 09:55:07,VALID,918.929,VALID,0.0,VALID,66.696,VALID,721.413,VALID,25.046,VALID,239.0,VALID,0.0,
2018-08-14, 09:56:07,VALID,918.939,VALID,0.0,VALID,64.66,VALID,724.22,VALID,24.914,VALID,238.0,VALID,0.0,
2018-08-14, 09:57:07,VALID,918.964,VALID,0.0,VALID,65.42,VALID,726.616,VALID,24.725,VALID,254.0,VALID,0.0,
2018-08-14, 09:58:07,VALID,918.984,VALID,0.0,VALID,65.993,VALID,728.932,VALID,24.916,VALID,237.0,VALID,0.0,
2018-08-14, 09:59:07,VALID,919.015,VALID,0.0,VALID,64.935,VALID,732.143,VALID,25.13,VALID,238.0,VALID,0.0,
2018-08-14, 10:00:07,VALID,919.023,VALID,0.0,VALID,64.852,VALID,733.685,VALID,25.342,VALID,323.0,VALID,0.0,
2018-08-14, 10:01:07,VALID,919.031,VALID,0.0,VALID,64.462,VALID,736.901,VALID,25.784,VALID,267.0,VALID,0.0,
2018-08-14, 10:02:07,VALID,919.037,VALID,0.0,VALID,61.262,VALID,738.992,VALID,25.993,VALID,227.0,VALID,0.0,
2018-08-14, 10:03:07,VALID,919.001,VALID,0.0,VALID,61.731,VALID,741.156,VALID,25.855,VALID,225.0,VALID,0.0,
2018-08-14, 10:04:07,VALID,918.993,VALID,0.0,VALID,61.605,VALID,744.844,VALID,25.584,VALID,218.0,VALID,0.0,
2018-08-14, 10:05:07,VALID,918.977,VALID,0.0,VALID,61.781,VALID,746.393,VALID,25.283,VALID,236.0,VALID,0.0,
2018-08-14, 10:06:07,VALID,918.953,VALID,0.0,VALID,62.558,VALID,749.376,VALID,25.031,VALID,225.0,VALID,0.0,
2018-08-14, 10:07:07,VALID,918.918,VALID,0.0,VALID,63.196,VALID,753.832,VALID,25.0,VALID,198.0,VALID,0.0,
2018-08-14, 10:08:07,VALID,918.889,VALID,0.0,VALID,63.062,VALID,756.891,VALID,25.139,VALID,215.0,VALID,0.0,
2018-08-14, 10:09:07,VALID,918.869,VALID,0.0,VALID,62.943,VALID,757.71,VALID,25.211,VALID,220.0,VALID,0.0,
2018-08-14, 10:10:07,VALID,918.834,VALID,0.0,VALID,62.654,VALID,761.37,VALID,25.231,VALID,187.0,VALID,0.0,
2018-08-14, 10:11:07,VALID,918.828,VALID,0.0,VALID,62.629,VALID,746.483,VALID,25.264,VALID,196.0,VALID,0.0,
2018-08-14, 10:12:07,VALID,918.825,VALID,0.0,VALID,63.156,VALID,765.511,VALID,25.539,VALID,244.0,VALID,0.0,
2018-08-14, 10:13:07,VALID,918.825,VALID,0.0,VALID,62.303,VALID,767.079,VALID,25.813,VALID,309.0,VALID,0.0,
2018-08-14, 10:14:07,VALID,918.823,VALID,0.0,VALID,61.951,VALID,769.146,VALID,25.98,VALID,173.0,VALID,0.0,
2018-08-14, 10:15:07,VALID,918.823,VALID,0.0,VALID,62.966,VALID,772.19,VALID,26.237,VALID,264.0,VALID,0.0,
2018-08-14, 10:16:07,VALID,918.813,VALID,0.0,VALID,62.441,VALID,774.591,VALID,26.36,VALID,286.0,VALID,0.0,
2018-08-14, 10:17:07,VALID,918.802,VALID,0.0,VALID,61.046,VALID,777.097,VALID,26.408,VALID,206.0,VALID,0.0,
2018-08-14, 10:18:07,VALID,918.78,VALID,0.0,VALID,59.662,VALID,779.809,VALID,26.343,VALID,161.0,VALID,0.0,
2018-08-14, 10:19:07,VALID,918.771,VALID,0.0,VALID,61.387,VALID,780.017,VALID,26.502,VALID,304.0,VALID,0.0,
2018-08-14, 10:20:07,VALID,918.758,VALID,0.0,VALID,59.945,VALID,782.229,VALID,26.516,VALID,254.0,VALID,0.0,
2018-08-14, 10:21:07,VALID,918.736,VALID,0.0,VALID,61.371,VALID,784.691,VALID,26.546,VALID,263.0,VALID,0.0,
2018-08-14, 10:22:07,VALID,918.707,VALID,0.0,VALID,60.368,VALID,786.864,VALID,26.374,VALID,276.0,VALID,0.0,
2018-08-14, 10:23:07,VALID,918.675,VALID,0.0,VALID,60.596,VALID,789.978,VALID,26.254,VALID,304.0,VALID,0.0,
2018-08-14, 10:24:06,VALID,918.642,VALID,0.0,VALID,60.952,VALID,792.747,VALID,26.057,VALID,285.0,VALID,0.0,
2018-08-14, 10:25:06,VALID,918.626,VALID,0.0,VALID,61.8,VALID,795.818,VALID,25.92,VALID,341.0,VALID,0.0,
2018-08-14, 10:26:06,VALID,918.623,VALID,0.0,VALID,61.129,VALID,798.651,VALID,25.941,VALID,315.0,VALID,0.0,
2018-08-14, 10:27:06,VALID,918.619,VALID,0.0,VALID,60.576,VALID,801.212,VALID,26.022,VALID,166.0,VALID,0.0,
2018-08-14, 10:28:06,VALID,918.616,VALID,0.0,VALID,61.031,VALID,803.008,VALID,26.137,VALID,248.0,VALID,0.0,
2018-08-14, 10:29:06,VALID,918.614,VALID,0.0,VALID,63.447,VALID,804.495,VALID,26.396,VALID,317.0,VALID,0.0,
2018-08-14, 10:30:06,VALID,918.64,VALID,0.0,VALID,60.171,VALID,806.653,VALID,26.519,VALID,283.0,VALID,0.0,
2018-08-14, 10:31:06,VALID,918.636,VALID,0.0,VALID,60.222,VALID,808.455,VALID,26.339,VALID,329.0,VALID,0.0,
2018-08-14, 10:32:06,VALID,918.636,VALID,0.0,VALID,60.437,VALID,811.615,VALID,26.225,VALID,18.0,VALID,0.0,
2018-08-14, 10:33:06,VALID,918.651,VALID,0.0,VALID,61.696,VALID,813.898,VALID,26.179,VALID,37.0,VALID,0.0,
2018-08-14, 10:34:06,VALID,918.661,VALID,0.0,VALID,61.499,VALID,815.448,VALID,26.553,VALID,340.0,VALID,0.0,
2018-08-14, 10:35:06,VALID,918.662,VALID,0.0,VALID,59.644,VALID,817.133,VALID,26.749,VALID,192.0,VALID,0.0,
2018-08-14, 10:36:06,VALID,918.642,VALID,0.0,VALID,59.489,VALID,818.774,VALID,26.628,VALID,223.0,VALID,0.0,
2018-08-14, 10:37:06,VALID,918.635,VALID,0.0,VALID,60.068,VALID,822.096,VALID,26.681,VALID,284.0,VALID,0.0,
2018-08-14, 10:38:06,VALID,918.634,VALID,0.0,VALID,60.006,VALID,824.63,VALID,26.79,VALID,257.0,VALID,0.0,
2018-08-14, 10:39:06,VALID,918.622,VALID,0.0,VALID,59.092,VALID,824.844,VALID,26.641,VALID,247.0,VALID,0.0,